Zeit;wasserstand;wasserstand_status;abfluss;abfluss_status
1991-01-01 00:00:00;211.0;1;1.7663;1
1991-01-02 00:00:00;205.0;1;1.6046;1
1991-01-03 00:00:00;214.0;1;1.8508;1
1991-01-04 00:00:00;210.0;1;1.746;1
1991-01-05 00:00:00;201.0;1;1.5117;1
1991-01-06 00:00:00;201.0;1;1.4957;1
1991-01-07 00:00:00;209.0;1;1.705;1
1991-01-08 00:00:00;203.0;1;1.5564;1
1991-01-09 00:00:00;196.0;1;1.3703;1
1991-01-10 00:00:00;201.0;1;1.5194;1
1991-01-11 00:00:00;215.0;1;1.8801;1
1991-01-12 00:00:00;227.0;1;2.2254;1
1991-01-13 00:00:00;223.0;1;2.1139;1
1991-01-14 00:00:00;205.0;1;1.6031;1
1991-01-15 00:00:00;190.0;1;1.2449;1
1991-01-16 00:00:00;176.0;1;0.9515;1
1991-01-17 00:00:00;168.0;1;0.7929;1
1991-01-18 00:00:00;162.0;1;0.6837;1
1991-01-19 00:00:00;158.0;1;0.6209;1
1991-01-20 00:00:00;158.0;1;0.6128;1
1991-01-21 00:00:00;172.0;1;0.8585;1
1991-01-22 00:00:00;179.0;1;0.9963;1
1991-01-23 00:00:00;177.0;1;0.9665;1
1991-01-24 00:00:00;178.0;1;0.9741;1
1991-01-25 00:00:00;179.0;1;0.9929;1
1991-01-26 00:00:00;180.0;1;1.0152;1
1991-01-27 00:00:00;175.0;1;0.9159;1
1991-01-28 00:00:00;172.0;1;0.8718;1
1991-01-29 00:00:00;173.0;1;0.8845;1
1991-01-30 00:00:00;169.0;1;0.8102;1
1991-01-31 00:00:00;163.0;1;0.7047;1
1991-02-01 00:00:00;158.0;1;0.6148;1
1991-02-02 00:00:00;156.0;1;0.5763;1
1991-02-03 00:00:00;151.0;1;0.5061;1
1991-02-04 00:00:00;150.0;1;0.4831;1
1991-02-05 00:00:00;149.0;1;0.4782;1
1991-02-06 00:00:00;147.0;1;0.4455;1
1991-02-07 00:00:00;145.0;1;0.415;1
1991-02-08 00:00:00;147.0;1;0.4453;1
1991-02-09 00:00:00;146.0;1;0.4363;1
1991-02-10 00:00:00;146.0;1;0.4337;1
1991-02-11 00:00:00;147.0;1;0.4406;1
1991-02-12 00:00:00;147.0;1;0.4435;1
1991-02-13 00:00:00;146.0;1;0.4376;1
1991-02-14 00:00:00;146.0;1;0.4298;1
1991-02-15 00:00:00;147.0;1;0.4527;1
1991-02-16 00:00:00;148.0;1;0.4586;1
1991-02-17 00:00:00;147.0;1;0.4513;1
1991-02-18 00:00:00;149.0;1;0.4767;1
1991-02-19 00:00:00;148.0;1;0.4668;1
1991-02-20 00:00:00;147.0;1;0.4508;1
1991-02-21 00:00:00;148.0;1;0.4619;1
1991-02-22 00:00:00;152.0;1;0.5223;1
1991-02-23 00:00:00;190.0;1;1.3237;1
1991-02-24 00:00:00;232.0;1;2.3797;1
1991-02-25 00:00:00;226.0;1;2.1939;1
1991-02-26 00:00:00;221.0;1;2.0294;1
1991-02-27 00:00:00;207.0;1;1.6637;1
1991-02-28 00:00:00;196.0;1;1.3908;1
1991-03-01 00:00:00;188.0;1;1.1857;1
1991-03-02 00:00:00;182.0;1;1.0668;1
1991-03-03 00:00:00;179.0;1;1.0015;1
1991-03-04 00:00:00;176.0;1;0.9364;1
1991-03-05 00:00:00;174.0;1;0.8927;1
1991-03-06 00:00:00;178.0;1;0.9759;1
1991-03-07 00:00:00;172.0;1;0.8634;1
1991-03-08 00:00:00;167.0;1;0.7714;1
1991-03-09 00:00:00;165.0;1;0.7301;1
1991-03-10 00:00:00;161.0;1;0.6664;1
1991-03-11 00:00:00;157.0;1;0.6027;1
1991-03-12 00:00:00;160.0;1;0.6491;1
1991-03-13 00:00:00;157.0;1;0.5983;1
1991-03-14 00:00:00;156.0;1;0.5876;1
1991-03-15 00:00:00;156.0;1;0.5795;1
1991-03-16 00:00:00;155.0;1;0.5617;1
1991-03-17 00:00:00;154.0;1;0.5545;1
1991-03-18 00:00:00;152.0;1;0.5136;1
1991-03-19 00:00:00;160.0;1;0.6479;1
1991-03-20 00:00:00;187.0;1;1.1715;1
1991-03-21 00:00:00;187.0;1;1.1833;1
1991-03-22 00:00:00;181.0;1;1.0355;1
1991-03-23 00:00:00;168.0;1;0.7874;1
1991-03-24 00:00:00;160.0;1;0.6545;1
1991-03-25 00:00:00;156.0;1;0.5809;1
1991-03-26 00:00:00;153.0;1;0.5415;1
1991-03-27 00:00:00;152.0;1;0.5261;1
1991-03-28 00:00:00;151.0;1;0.5054;1
1991-03-29 00:00:00;149.0;1;0.4758;1
1991-03-30 00:00:00;147.0;1;0.4441;1
1991-03-31 00:00:00;146.0;1;0.4283;1
1991-04-01 00:00:00;148.0;1;0.4612;1
1991-04-02 00:00:00;165.0;1;0.7308;1
1991-04-03 00:00:00;162.0;1;0.6831;1
1991-04-04 00:00:00;156.0;1;0.5829;1
1991-04-05 00:00:00;153.0;1;0.539;1
1991-04-06 00:00:00;150.0;1;0.4913;1
1991-04-07 00:00:00;147.0;1;0.4492;1
1991-04-08 00:00:00;152.0;1;0.5262;1
1991-04-09 00:00:00;155.0;1;0.567;1
1991-04-10 00:00:00;151.0;1;0.5037;1
1991-04-11 00:00:00;148.0;1;0.4531;1
1991-04-12 00:00:00;146.0;1;0.4354;1
1991-04-13 00:00:00;145.0;1;0.4142;1
1991-04-14 00:00:00;144.0;1;0.4044;1
1991-04-15 00:00:00;142.0;1;0.3724;1
1991-04-16 00:00:00;142.0;1;0.374;1
1991-04-17 00:00:00;140.0;1;0.3562;1
1991-04-18 00:00:00;141.0;1;0.3659;1
1991-04-19 00:00:00;141.0;1;0.3589;1
1991-04-20 00:00:00;140.0;1;0.3531;1
1991-04-21 00:00:00;139.0;1;0.3348;1
1991-04-22 00:00:00;142.0;1;0.3817;1
1991-04-23 00:00:00;158.0;1;0.6132;1
1991-04-24 00:00:00;154.0;1;0.5536;1
1991-04-25 00:00:00;149.0;1;0.4789;1
1991-04-26 00:00:00;146.0;1;0.4302;1
1991-04-27 00:00:00;145.0;1;0.4143;1
1991-04-28 00:00:00;146.0;1;0.4338;1
1991-04-29 00:00:00;145.0;1;0.4235;1
1991-04-30 00:00:00;156.0;1;0.576;1
1991-05-01 00:00:00;148.0;1;0.4627;1
1991-05-02 00:00:00;152.0;1;0.5184;1
1991-05-03 00:00:00;152.0;1;0.5265;1
1991-05-04 00:00:00;156.0;1;0.583;1
1991-05-05 00:00:00;151.0;1;0.499;1
1991-05-06 00:00:00;156.0;1;0.5859;1
1991-05-07 00:00:00;154.0;1;0.5552;1
1991-05-08 00:00:00;148.0;1;0.4542;1
1991-05-09 00:00:00;145.0;1;0.4191;1
1991-05-10 00:00:00;142.0;1;0.3773;1
1991-05-11 00:00:00;141.0;1;0.3653;1
1991-05-12 00:00:00;139.0;1;0.3421;1
1991-05-13 00:00:00;139.0;1;0.3452;1
1991-05-14 00:00:00;139.0;1;0.3358;1
1991-05-15 00:00:00;138.0;1;0.3265;1
1991-05-16 00:00:00;140.0;1;0.3475;1
1991-05-17 00:00:00;145.0;1;0.422;1
1991-05-18 00:00:00;140.0;1;0.3552;1
1991-05-19 00:00:00;136.0;1;0.3039;1
1991-05-20 00:00:00;135.0;1;0.2868;1
1991-05-21 00:00:00;135.0;1;0.2924;1
1991-05-22 00:00:00;134.0;1;0.2805;1
1991-05-23 00:00:00;134.0;1;0.2845;1
1991-05-24 00:00:00;136.0;1;0.2986;1
1991-05-25 00:00:00;133.0;1;0.2655;1
1991-05-26 00:00:00;132.0;1;0.2531;1
1991-05-27 00:00:00;131.0;1;0.2487;1
1991-05-28 00:00:00;131.0;1;0.244;1
1991-05-29 00:00:00;131.0;1;0.2485;1
1991-05-30 00:00:00;132.0;1;0.2562;1
1991-05-31 00:00:00;132.0;1;0.2527;1
1991-06-01 00:00:00;125.0;1;0.1851;1
1991-06-02 00:00:00;122.0;1;0.1561;1
1991-06-03 00:00:00;124.0;1;0.1776;1
1991-06-04 00:00:00;126.0;1;0.1961;1
1991-06-05 00:00:00;127.0;1;0.2059;1
1991-06-06 00:00:00;127.0;1;0.2059;1
1991-06-07 00:00:00;127.0;1;0.2063;1
1991-06-08 00:00:00;127.0;1;0.202;1
1991-06-09 00:00:00;125.0;1;0.1895;1
1991-06-10 00:00:00;128.0;1;0.212;1
1991-06-11 00:00:00;133.0;1;0.2663;1
1991-06-12 00:00:00;136.0;1;0.2983;1
1991-06-13 00:00:00;141.0;1;0.3663;1
1991-06-14 00:00:00;141.0;1;0.3639;1
1991-06-15 00:00:00;138.0;1;0.3328;1
1991-06-16 00:00:00;154.0;1;0.553;1
1991-06-17 00:00:00;144.0;1;0.4025;1
1991-06-18 00:00:00;139.0;1;0.3343;1
1991-06-19 00:00:00;137.0;1;0.3106;1
1991-06-20 00:00:00;137.0;1;0.3098;1
1991-06-21 00:00:00;144.0;1;0.3984;1
1991-06-22 00:00:00;138.0;1;0.3227;1
1991-06-23 00:00:00;134.0;1;0.2795;1
1991-06-24 00:00:00;144.0;1;0.4091;1
1991-06-25 00:00:00;144.0;1;0.4046;1
1991-06-26 00:00:00;151.0;1;0.5149;1
1991-06-27 00:00:00;160.0;1;0.6563;1
1991-06-28 00:00:00;226.0;1;2.2324;1
1991-06-29 00:00:00;246.0;1;2.7996;1
1991-06-30 00:00:00;227.0;1;2.2324;1
1991-07-01 00:00:00;193.0;1;1.313;1
1991-07-02 00:00:00;209.0;1;1.7581;1
1991-07-03 00:00:00;220.0;1;2.0039;1
1991-07-04 00:00:00;197.0;1;1.4168;1
1991-07-05 00:00:00;176.0;1;0.9359;1
1991-07-06 00:00:00;161.0;1;0.6648;1
1991-07-07 00:00:00;153.0;1;0.5382;1
1991-07-08 00:00:00;151.0;1;0.5097;1
1991-07-09 00:00:00;154.0;1;0.5527;1
1991-07-10 00:00:00;148.0;1;0.4577;1
1991-07-11 00:00:00;143.0;1;0.3899;1
1991-07-12 00:00:00;143.0;1;0.3843;1
1991-07-13 00:00:00;142.0;1;0.3777;1
1991-07-14 00:00:00;141.0;1;0.3669;1
1991-07-15 00:00:00;141.0;1;0.3631;1
1991-07-16 00:00:00;140.0;1;0.352;1
1991-07-17 00:00:00;140.0;1;0.3467;1
1991-07-18 00:00:00;139.0;1;0.3394;1
1991-07-19 00:00:00;138.0;1;0.3307;1
1991-07-20 00:00:00;138.0;1;0.3265;1
1991-07-21 00:00:00;137.0;1;0.3149;1
1991-07-22 00:00:00;137.0;1;0.3109;1
1991-07-23 00:00:00;136.0;1;0.303;1
1991-07-24 00:00:00;135.0;1;0.2952;1
1991-07-25 00:00:00;135.0;1;0.2913;1
1991-07-26 00:00:00;135.0;1;0.2913;1
1991-07-27 00:00:00;135.0;1;0.2913;1
1991-07-28 00:00:00;135.0;1;0.2913;1
1991-07-29 00:00:00;135.0;1;0.2913;1
1991-07-30 00:00:00;135.0;1;0.2913;1
1991-07-31 00:00:00;135.0;1;0.2913;1
1991-08-01 00:00:00;135.0;1;0.2913;1
1991-08-02 00:00:00;161.0;1;0.6744;1
1991-08-03 00:00:00;210.0;1;1.7496;1
1991-08-04 00:00:00;193.0;1;1.3119;1
1991-08-05 00:00:00;174.0;1;0.9094;1
1991-08-06 00:00:00;155.0;1;0.5712;1
1991-08-07 00:00:00;153.0;1;0.5357;1
1991-08-08 00:00:00;154.0;1;0.5434;1
1991-08-09 00:00:00;163.0;1;0.7001;1
1991-08-10 00:00:00;140.0;1;0.3514;1
1991-08-11 00:00:00;138.0;1;0.3307;1
1991-08-12 00:00:00;138.0;1;0.3271;1
1991-08-13 00:00:00;137.0;1;0.31;1
1991-08-14 00:00:00;136.0;1;0.2971;1
1991-08-15 00:00:00;135.0;1;0.2919;1
1991-08-16 00:00:00;135.0;1;0.2886;1
1991-08-17 00:00:00;135.0;1;0.2941;1
1991-08-18 00:00:00;154.0;1;0.5539;1
1991-08-19 00:00:00;145.0;1;0.4192;1
1991-08-20 00:00:00;139.0;1;0.3423;1
1991-08-21 00:00:00;137.0;1;0.3168;1
1991-08-22 00:00:00;135.0;1;0.2923;1
1991-08-23 00:00:00;132.0;1;0.2627;1
1991-08-24 00:00:00;132.0;1;0.2546;1
1991-08-25 00:00:00;131.0;1;0.2483;1
1991-08-26 00:00:00;130.0;1;0.2379;1
1991-08-27 00:00:00;130.0;1;0.24;1
1991-08-28 00:00:00;133.0;1;0.2635;1
1991-08-29 00:00:00;131.0;1;0.2491;1
1991-08-30 00:00:00;130.0;1;0.231;1
1991-08-31 00:00:00;129.0;1;0.2215;1
1991-09-01 00:00:00;127.0;1;0.2071;1
1991-09-02 00:00:00;127.0;1;0.2065;1
1991-09-03 00:00:00;128.0;1;0.2193;1
1991-09-04 00:00:00;128.0;1;0.2144;1
1991-09-05 00:00:00;129.0;1;0.224;1
1991-09-06 00:00:00;128.0;1;0.2127;1
1991-09-07 00:00:00;127.0;1;0.2068;1
1991-09-08 00:00:00;128.0;1;0.2136;1
1991-09-09 00:00:00;129.0;1;0.2231;1
1991-09-10 00:00:00;129.0;1;0.2211;1
1991-09-11 00:00:00;128.0;1;0.2189;1
1991-09-12 00:00:00;128.0;1;0.213;1
1991-09-13 00:00:00;128.0;1;0.2168;1
1991-09-14 00:00:00;127.0;1;0.2105;1
1991-09-15 00:00:00;127.0;1;0.2034;1
1991-09-16 00:00:00;128.0;1;0.2168;1
1991-09-17 00:00:00;129.0;1;0.2287;1
1991-09-18 00:00:00;131.0;1;0.2433;1
1991-09-19 00:00:00;130.0;1;0.2345;1
1991-09-20 00:00:00;129.0;1;0.2299;1
1991-09-21 00:00:00;128.0;1;0.2149;1
1991-09-22 00:00:00;127.0;1;0.2105;1
1991-09-23 00:00:00;128.0;1;0.214;1
1991-09-24 00:00:00;129.0;1;0.2279;1
1991-09-25 00:00:00;130.0;1;0.2321;1
1991-09-26 00:00:00;151.0;1;0.5011;1
1991-09-27 00:00:00;159.0;1;0.636;1
1991-09-28 00:00:00;149.0;1;0.479;1
1991-09-29 00:00:00;142.0;1;0.3726;1
1991-09-30 00:00:00;137.0;1;0.3172;1
1991-10-01 00:00:00;141.0;1;0.3702;1
1991-10-02 00:00:00;165.0;1;0.7458;1
1991-10-03 00:00:00;159.0;1;0.628;1
1991-10-04 00:00:00;148.0;1;0.4665;1
1991-10-05 00:00:00;143.0;1;0.3903;1
1991-10-06 00:00:00;140.0;1;0.3548;1
1991-10-07 00:00:00;140.0;1;0.3574;1
1991-10-08 00:00:00;140.0;1;0.3538;1
1991-10-09 00:00:00;140.0;1;0.352;1
1991-10-10 00:00:00;140.0;1;0.3536;1
1991-10-11 00:00:00;140.0;1;0.3473;1
1991-10-12 00:00:00;139.0;1;0.3346;1
1991-10-13 00:00:00;139.0;1;0.3371;1
1991-10-14 00:00:00;137.0;1;0.3191;1
1991-10-15 00:00:00;138.0;1;0.3322;1
1991-10-16 00:00:00;137.0;1;0.3128;1
1991-10-17 00:00:00;145.0;1;0.4252;1
1991-10-18 00:00:00;164.0;1;0.7401;1
1991-10-19 00:00:00;208.0;1;1.6785;1
1991-10-20 00:00:00;199.0;1;1.4568;1
1991-10-21 00:00:00;180.0;1;1.0175;1
1991-10-22 00:00:00;172.0;1;0.856;1
1991-10-23 00:00:00;168.0;1;0.791;1
1991-10-24 00:00:00;157.0;1;0.5937;1
1991-10-25 00:00:00;151.0;1;0.5074;1
1991-10-26 00:00:00;146.0;1;0.4302;1
1991-10-27 00:00:00;142.0;1;0.3812;1
1991-10-28 00:00:00;144.0;1;0.4049;1
1991-10-29 00:00:00;141.0;1;0.3669;1
1991-10-30 00:00:00;142.0;1;0.3788;1
1991-10-31 00:00:00;143.0;1;0.3921;1
1991-11-01 00:00:00;140.0;1;0.3256;1
1991-11-02 00:00:00;144.0;1;0.3608;1
1991-11-03 00:00:00;147.0;1;0.4048;1
1991-11-04 00:00:00;150.0;1;0.4406;1
1991-11-05 00:00:00;150.0;1;0.436;1
1991-11-06 00:00:00;159.0;1;0.5826;1
1991-11-07 00:00:00;194.0;1;1.2097;1
1991-11-08 00:00:00;223.0;1;1.8555;1
1991-11-09 00:00:00;234.0;1;2.1508;1
1991-11-10 00:00:00;233.0;1;2.106;1
1991-11-11 00:00:00;228.0;1;1.9706;1
1991-11-12 00:00:00;238.0;1;2.2359;1
1991-11-13 00:00:00;233.0;1;2.1152;1
1991-11-14 00:00:00;222.0;1;1.8007;1
1991-11-15 00:00:00;207.0;1;1.4446;1
1991-11-16 00:00:00;201.0;1;1.3013;1
1991-11-17 00:00:00;181.0;1;0.9057;1
1991-11-18 00:00:00;170.0;1;0.7156;1
1991-11-19 00:00:00;166.0;1;0.6624;1
1991-11-20 00:00:00;161.0;1;0.5885;1
1991-11-21 00:00:00;160.0;1;0.5734;1
1991-11-22 00:00:00;155.0;1;0.499;1
1991-11-23 00:00:00;154.0;1;0.4833;1
1991-11-24 00:00:00;152.0;1;0.4628;1
1991-11-25 00:00:00;152.0;1;0.4654;1
1991-11-26 00:00:00;153.0;1;0.4732;1
1991-11-27 00:00:00;153.0;1;0.4785;1
1991-11-28 00:00:00;155.0;1;0.5069;1
1991-11-29 00:00:00;155.0;1;0.5024;1
1991-11-30 00:00:00;152.0;1;0.467;1
1991-12-01 00:00:00;150.0;1;0.4444;1
1991-12-02 00:00:00;149.0;1;0.4301;1
1991-12-03 00:00:00;149.0;1;0.4343;1
1991-12-04 00:00:00;148.0;1;0.4249;1
1991-12-05 00:00:00;147.0;1;0.406;1
1991-12-06 00:00:00;146.0;1;0.397;1
1991-12-07 00:00:00;145.0;1;0.3781;1
1991-12-08 00:00:00;143.0;1;0.3623;1
1991-12-09 00:00:00;145.0;1;0.3812;1
1991-12-10 00:00:00;143.0;1;0.3636;1
1991-12-11 00:00:00;141.0;1;0.3369;1
1991-12-12 00:00:00;142.0;1;0.3532;1
1991-12-13 00:00:00;142.0;1;0.3424;1
1991-12-14 00:00:00;143.0;1;0.3575;1
1991-12-15 00:00:00;143.0;1;0.3635;1
1991-12-16 00:00:00;142.0;1;0.3507;1
1991-12-17 00:00:00;143.0;1;0.3612;1
1991-12-18 00:00:00;169.0;1;0.762;1
1991-12-19 00:00:00;200.0;1;1.425;1
1991-12-20 00:00:00;256.0;1;2.9491;1
1991-12-21 00:00:00;259.0;1;3.0257;1
1991-12-22 00:00:00;256.0;1;2.9314;1
1991-12-23 00:00:00;252.0;1;2.8347;1
1991-12-24 00:00:00;260.0;1;3.1003;1
1991-12-25 00:00:00;257.0;1;3.0057;1
1991-12-26 00:00:00;251.0;1;2.7982;1
1991-12-27 00:00:00;249.0;1;2.7423;1
1991-12-28 00:00:00;238.0;1;2.4061;1
1991-12-29 00:00:00;217.0;1;1.8289;1
1991-12-30 00:00:00;202.0;1;1.4561;1
1991-12-31 00:00:00;194.0;1;1.2755;1
1992-01-01 00:00:00;189.0;1;1.1594;1
1992-01-02 00:00:00;189.0;1;1.1564;1
1992-01-03 00:00:00;183.0;1;1.0391;1
1992-01-04 00:00:00;185.0;1;1.0861;1
1992-01-05 00:00:00;183.0;1;1.0481;1
1992-01-06 00:00:00;186.0;1;1.097;1
1992-01-07 00:00:00;187.0;1;1.1296;1
1992-01-08 00:00:00;183.0;1;1.0566;1
1992-01-09 00:00:00;183.0;1;1.0613;1
1992-01-10 00:00:00;187.0;1;1.1404;1
1992-01-11 00:00:00;177.0;1;0.9414;1
1992-01-12 00:00:00;172.0;1;0.8435;1
1992-01-13 00:00:00;169.0;1;0.7991;1
1992-01-14 00:00:00;172.0;1;0.8529;1
1992-01-15 00:00:00;173.0;1;0.8565;1
1992-01-16 00:00:00;169.0;1;0.7899;1
1992-01-17 00:00:00;168.0;1;0.7764;1
1992-01-18 00:00:00;166.0;1;0.7501;1
1992-01-19 00:00:00;178.0;1;0.9761;1
1992-01-20 00:00:00;193.0;1;1.2965;1
1992-01-21 00:00:00;177.0;1;0.9605;1
1992-01-22 00:00:00;163.0;1;0.6969;1
1992-01-23 00:00:00;159.0;1;0.6297;1
1992-01-24 00:00:00;159.0;1;0.6249;1
1992-01-25 00:00:00;158.0;1;0.6139;1
1992-01-26 00:00:00;158.0;1;0.6139;1
1992-01-27 00:00:00;157.0;1;0.6073;1
1992-01-28 00:00:00;157.0;1;0.6035;1
1992-01-29 00:00:00;157.0;1;0.6035;1
1992-01-30 00:00:00;157.0;1;0.6056;1
1992-01-31 00:00:00;158.0;1;0.6269;1
1992-02-01 00:00:00;161.0;1;0.6621;1
1992-02-02 00:00:00;162.0;1;0.6844;1
1992-02-03 00:00:00;174.0;1;0.921;1
1992-02-04 00:00:00;184.0;1;1.1356;1
1992-02-05 00:00:00;174.0;1;0.9201;1
1992-02-06 00:00:00;179.0;1;1.0294;1
1992-02-07 00:00:00;180.0;1;1.0409;1
1992-02-08 00:00:00;173.0;1;0.8985;1
1992-02-09 00:00:00;166.0;1;0.7701;1
1992-02-10 00:00:00;167.0;1;0.7856;1
1992-02-11 00:00:00;172.0;1;0.8878;1
1992-02-12 00:00:00;168.0;1;0.8144;1
1992-02-13 00:00:00;169.0;1;0.8247;1
1992-02-14 00:00:00;169.0;1;0.8349;1
1992-02-15 00:00:00;192.0;1;1.3413;1
1992-02-16 00:00:00;214.0;1;1.8924;1
1992-02-17 00:00:00;214.0;1;1.8912;1
1992-02-18 00:00:00;195.0;1;1.3968;1
1992-02-19 00:00:00;182.0;1;1.1036;1
1992-02-20 00:00:00;177.0;1;0.9815;1
1992-02-21 00:00:00;173.0;1;0.9136;1
1992-02-22 00:00:00;170.0;1;0.8423;1
1992-02-23 00:00:00;193.0;1;1.359;1
1992-02-24 00:00:00;201.0;1;1.5367;1
1992-02-25 00:00:00;189.0;1;1.241;1
1992-02-26 00:00:00;181.0;1;1.0572;1
1992-02-27 00:00:00;177.0;1;0.9642;1
1992-02-28 00:00:00;175.0;1;0.9365;1
1992-02-29 00:00:00;170.0;1;0.8344;1
1992-03-01 00:00:00;167.0;1;0.7691;1
1992-03-02 00:00:00;167.0;1;0.7639;1
1992-03-03 00:00:00;178.0;1;0.9847;1
1992-03-04 00:00:00;185.0;1;1.1298;1
1992-03-05 00:00:00;177.0;1;0.9687;1
1992-03-06 00:00:00;177.0;1;0.9666;1
1992-03-07 00:00:00;174.0;1;0.9273;1
1992-03-08 00:00:00;170.0;1;0.8356;1
1992-03-09 00:00:00;165.0;1;0.7552;1
1992-03-10 00:00:00;165.0;1;0.7604;1
1992-03-11 00:00:00;178.0;1;1.0149;1
1992-03-12 00:00:00;200.0;1;1.583;1
1992-03-13 00:00:00;255.0;1;3.2657;1
1992-03-14 00:00:00;259.0;1;3.428;1
1992-03-15 00:00:00;251.0;1;3.1172;1
1992-03-16 00:00:00;239.0;1;2.7066;1
1992-03-17 00:00:00;222.0;1;2.1765;1
1992-03-18 00:00:00;211.0;1;1.8557;1
1992-03-19 00:00:00;205.0;1;1.6789;1
1992-03-20 00:00:00;200.0;1;1.5421;1
1992-03-21 00:00:00;208.0;1;1.7579;1
1992-03-22 00:00:00;237.0;1;2.6061;1
1992-03-23 00:00:00;249.0;1;2.9872;1
1992-03-24 00:00:00;240.0;1;2.6762;1
1992-03-25 00:00:00;224.0;1;2.1654;1
1992-03-26 00:00:00;212.0;1;1.8008;1
1992-03-27 00:00:00;199.0;1;1.4458;1
1992-03-28 00:00:00;193.0;1;1.2977;1
1992-03-29 00:00:00;190.0;1;1.218;1
1992-03-30 00:00:00;182.0;1;1.0483;1
1992-03-31 00:00:00;175.0;1;0.9065;1
1992-04-01 00:00:00;172.0;1;0.8242;1
1992-04-02 00:00:00;177.0;1;0.9221;1
1992-04-03 00:00:00;175.0;1;0.8864;1
1992-04-04 00:00:00;170.0;1;0.7783;1
1992-04-05 00:00:00;165.0;1;0.7014;1
1992-04-06 00:00:00;164.0;1;0.6796;1
1992-04-07 00:00:00;169.0;1;0.7569;1
1992-04-08 00:00:00;165.0;1;0.6787;1
1992-04-09 00:00:00;160.0;1;0.5943;1
1992-04-10 00:00:00;157.0;1;0.5472;1
1992-04-11 00:00:00;155.0;1;0.5155;1
1992-04-12 00:00:00;152.0;1;0.4809;1
1992-04-13 00:00:00;151.0;1;0.4589;1
1992-04-14 00:00:00;161.0;1;0.6015;1
1992-04-15 00:00:00;166.0;1;0.7026;1
1992-04-16 00:00:00;188.0;1;1.0994;1
1992-04-17 00:00:00;182.0;1;0.9797;1
1992-04-18 00:00:00;178.0;1;0.9187;1
1992-04-19 00:00:00;185.0;1;1.0437;1
1992-04-20 00:00:00;175.0;1;0.8641;1
1992-04-21 00:00:00;167.0;1;0.7283;1
1992-04-22 00:00:00;164.0;1;0.6697;1
1992-04-23 00:00:00;160.0;1;0.609;1
1992-04-24 00:00:00;158.0;1;0.586;1
1992-04-25 00:00:00;156.0;1;0.5556;1
1992-04-26 00:00:00;154.0;1;0.5308;1
1992-04-27 00:00:00;167.0;1;0.7503;1
1992-04-28 00:00:00;169.0;1;0.7722;1
1992-04-29 00:00:00;211.0;1;1.7312;1
1992-04-30 00:00:00;212.0;1;1.7325;1
1992-05-01 00:00:00;198.0;1;1.3864;1
1992-05-02 00:00:00;191.0;1;1.2466;1
1992-05-03 00:00:00;175.0;1;0.9028;1
1992-05-04 00:00:00;164.0;1;0.7019;1
1992-05-05 00:00:00;166.0;1;0.7383;1
1992-05-06 00:00:00;163.0;1;0.6874;1
1992-05-07 00:00:00;163.0;1;0.6875;1
1992-05-08 00:00:00;173.0;1;0.8789;1
1992-05-09 00:00:00;175.0;1;0.9287;1
1992-05-10 00:00:00;224.0;1;2.1441;1
1992-05-11 00:00:00;235.0;1;2.4515;1
1992-05-12 00:00:00;227.0;1;2.2078;1
1992-05-13 00:00:00;218.0;1;1.9433;1
1992-05-14 00:00:00;204.0;1;1.5534;1
1992-05-15 00:00:00;187.0;1;1.1743;1
1992-05-16 00:00:00;175.0;1;0.9145;1
1992-05-17 00:00:00;167.0;1;0.7585;1
1992-05-18 00:00:00;163.0;1;0.6896;1
1992-05-19 00:00:00;158.0;1;0.6058;1
1992-05-20 00:00:00;154.0;1;0.5387;1
1992-05-21 00:00:00;152.0;1;0.5017;1
1992-05-22 00:00:00;152.0;1;0.4969;1
1992-05-23 00:00:00;150.0;1;0.4687;1
1992-05-24 00:00:00;146.0;1;0.4157;1
1992-05-25 00:00:00;144.0;1;0.3877;1
1992-05-26 00:00:00;138.0;1;0.3149;1
1992-05-27 00:00:00;137.0;1;0.2991;1
1992-05-28 00:00:00;135.0;1;0.2809;1
1992-05-29 00:00:00;134.0;1;0.2693;1
1992-05-30 00:00:00;134.0;1;0.2624;1
1992-05-31 00:00:00;132.0;1;0.2454;1
1992-06-01 00:00:00;132.0;1;0.2402;1
1992-06-02 00:00:00;134.0;1;0.2606;1
1992-06-03 00:00:00;133.0;1;0.252;1
1992-06-04 00:00:00;133.0;1;0.2538;1
1992-06-05 00:00:00;132.0;1;0.2442;1
1992-06-06 00:00:00;131.0;1;0.2296;1
1992-06-07 00:00:00;129.0;1;0.2105;1
1992-06-08 00:00:00;128.0;1;0.2026;1
1992-06-09 00:00:00;129.0;1;0.2034;1
1992-06-10 00:00:00;129.0;1;0.2094;1
1992-06-11 00:00:00;129.0;1;0.2016;1
1992-06-12 00:00:00;129.0;1;0.2059;1
1992-06-13 00:00:00;129.0;1;0.207;1
1992-06-14 00:00:00;129.0;1;0.2056;1
1992-06-15 00:00:00;128.0;1;0.1917;1
1992-06-16 00:00:00;128.0;1;0.1977;1
1992-06-17 00:00:00;128.0;1;0.1928;1
1992-06-18 00:00:00;128.0;1;0.1941;1
1992-06-19 00:00:00;129.0;1;0.2039;1
1992-06-20 00:00:00;128.0;1;0.193;1
1992-06-21 00:00:00;128.0;1;0.1856;1
1992-06-22 00:00:00;129.0;1;0.1942;1
1992-06-23 00:00:00;129.0;1;0.1945;1
1992-06-24 00:00:00;127.0;1;0.1832;1
1992-06-25 00:00:00;126.0;1;0.1738;1
1992-06-26 00:00:00;127.0;1;0.1795;1
1992-06-27 00:00:00;127.0;1;0.1763;1
1992-06-28 00:00:00;126.0;1;0.1696;1
1992-06-29 00:00:00;126.0;1;0.1717;1
1992-06-30 00:00:00;128.0;1;0.1889;1
1992-07-01 00:00:00;126.0;1;0.1741;1
1992-07-02 00:00:00;128.0;1;0.1857;1
1992-07-03 00:00:00;126.0;1;0.1725;1
1992-07-04 00:00:00;127.0;1;0.1874;1
1992-07-05 00:00:00;139.0;1;0.3067;1
1992-07-06 00:00:00;134.0;1;0.2517;1
1992-07-07 00:00:00;130.0;1;0.2105;1
1992-07-08 00:00:00;129.0;1;0.2022;1
1992-07-09 00:00:00;130.0;1;0.21;1
1992-07-10 00:00:00;129.0;1;0.2077;1
1992-07-11 00:00:00;129.0;1;0.2072;1
1992-07-12 00:00:00;133.0;1;0.2474;1
1992-07-13 00:00:00;128.0;1;0.2036;1
1992-07-14 00:00:00;138.0;1;0.3118;1
1992-07-15 00:00:00;135.0;1;0.2752;1
1992-07-16 00:00:00;131.0;1;0.2287;1
1992-07-17 00:00:00;128.0;1;0.2023;1
1992-07-18 00:00:00;139.0;1;0.3285;1
1992-07-19 00:00:00;133.0;1;0.2565;1
1992-07-20 00:00:00;129.0;1;0.2088;1
1992-07-21 00:00:00;129.0;1;0.2133;1
1992-07-22 00:00:00;130.0;1;0.2166;1
1992-07-23 00:00:00;129.0;1;0.2107;1
1992-07-24 00:00:00;129.0;1;0.2045;1
1992-07-25 00:00:00;128.0;1;0.1959;1
1992-07-26 00:00:00;128.0;1;0.1951;1
1992-07-27 00:00:00;129.0;1;0.2012;1
1992-07-28 00:00:00;129.0;1;0.1986;1
1992-07-29 00:00:00;128.0;1;0.1878;1
1992-07-30 00:00:00;128.0;1;0.1893;1
1992-07-31 00:00:00;129.0;1;0.1919;1
1992-08-01 00:00:00;130.0;1;0.2027;1
1992-08-02 00:00:00;133.0;1;0.2243;1
1992-08-03 00:00:00;138.0;1;0.2708;1
1992-08-04 00:00:00;131.0;1;0.2043;1
1992-08-05 00:00:00;130.0;1;0.1904;1
1992-08-06 00:00:00;128.0;1;0.1697;1
1992-08-07 00:00:00;127.0;1;0.1613;1
1992-08-08 00:00:00;126.0;1;0.1493;1
1992-08-09 00:00:00;126.0;1;0.1481;1
1992-08-10 00:00:00;127.0;1;0.1537;1
1992-08-11 00:00:00;127.0;1;0.1549;1
1992-08-12 00:00:00;128.0;1;0.1617;1
1992-08-13 00:00:00;131.0;1;0.1803;1
1992-08-14 00:00:00;130.0;1;0.1719;1
1992-08-15 00:00:00;130.0;1;0.1721;1
1992-08-16 00:00:00;128.0;1;0.1497;1
1992-08-17 00:00:00;127.0;1;0.1465;1
1992-08-18 00:00:00;129.0;1;0.1579;1
1992-08-19 00:00:00;128.0;1;0.1492;1
1992-08-20 00:00:00;128.0;1;0.1475;1
1992-08-21 00:00:00;142.0;1;0.2654;1
1992-08-22 00:00:00;137.0;1;0.2191;1
1992-08-23 00:00:00;132.0;1;0.1771;1
1992-08-24 00:00:00;131.0;1;0.1714;1
1992-08-25 00:00:00;136.0;1;0.2137;1
1992-08-26 00:00:00;139.0;1;0.2358;1
1992-08-27 00:00:00;135.0;1;0.2029;1
1992-08-28 00:00:00;135.0;1;0.2016;1
1992-08-29 00:00:00;147.0;1;0.3071;1
1992-08-30 00:00:00;140.0;1;0.2404;1
1992-08-31 00:00:00;136.0;1;0.208;1
1992-09-01 00:00:00;139.0;1;0.2375;1
1992-09-02 00:00:00;155.0;1;0.3889;1
1992-09-03 00:00:00;149.0;1;0.326;1
1992-09-04 00:00:00;149.0;1;0.3262;1
1992-09-05 00:00:00;143.0;1;0.27;1
1992-09-06 00:00:00;137.0;1;0.2212;1
1992-09-07 00:00:00;135.0;1;0.2069;1
1992-09-08 00:00:00;136.0;1;0.209;1
1992-09-09 00:00:00;134.0;1;0.1931;1
1992-09-10 00:00:00;133.0;1;0.1889;1
1992-09-11 00:00:00;133.0;1;0.1882;1
1992-09-12 00:00:00;132.0;1;0.1809;1
1992-09-13 00:00:00;131.0;1;0.1754;1
1992-09-14 00:00:00;131.0;1;0.1744;1
1992-09-15 00:00:00;132.0;1;0.1804;1
1992-09-16 00:00:00;130.0;1;0.1712;1
1992-09-17 00:00:00;129.0;1;0.1662;1
1992-09-18 00:00:00;129.0;1;0.1676;1
1992-09-19 00:00:00;129.0;1;0.1684;1
1992-09-20 00:00:00;128.0;1;0.1614;1
1992-09-21 00:00:00;129.0;1;0.1688;1
1992-09-22 00:00:00;130.0;1;0.1766;1